Weather History for Araxos, Greece

Change the Weather History Date:

Saturday, August 4, 2012

  Actual Average Record
Temperature  
Mean Temperature 78 °F -  
Max Temperature 89 °F 86 °F 102 °F (1998)
Min Temperature 68 °F 66 °F 35 °F (2002)
Cooling Degree Days 14    
Growing Degree Days 28 (Base 50)    
Moisture  
Dew Point 70 °F    
Average Humidity 69    
Maximum Humidity 94    
Minimum Humidity 52    
Precipitation  
Precipitation 0.00 in - - ()
Sea Level Pressure  
Sea Level Pressure 29.88 in    
Wind  
Wind Speed 2 mph ()    
Max Wind Speed 12 mph    
Max Gust Speed -    
Visibility 6.2 miles    
Events      
Averages and records for this station are not official NWS values.
T = Trace of Precipitation, MM = Missing Value Source: Averaged Metar Reports

Daily Weather History Graph

Daily Weather History Graph

Search for Another Location

Airport:

Trip Planner

Search our weather history database for the weather conditions in past years. The results will help you decide how hot, cold, wet, or windy it might be!

Date:

Astronomy

Aug. 04, 2012 Rise Set
Actual Time 6:39 AM EEST 8:40 PM EEST
Civil Twilight 6:10 AM EEST 9:09 PM EEST
Nautical Twilight 5:35 AM EEST 9:44 PM EEST
Astronomical Twilight 4:57 AM EEST 10:22 PM EEST
Moon 9:44 PM EEST (8/4) 9:04 AM EEST (8/4)
Length of Visible Light 14h 58m
Length of Day
14h 00m
Waning Gibbous, 94% of the Moon is Illuminated
Aug 4
Waning Gibbous
Aug 9
Last Quarter
Aug 17
New
Aug 24
First Quarter
Aug 31
Full

Hourly Weather History & Observations

Time (EEST) Temp. Heat Index Dew Point Humidity Pressure Visibility Wind Dir Wind Speed Gust Speed Precip Events Conditions
12:50 AM 75.2 °F - 71.6 °F 89% 29.89 in - Calm Calm - N/A   Clear
2:50 AM 73.4 °F - 71.6 °F 94% 29.89 in - Variable 2.3 mph - N/A   Clear
3:50 AM 71.6 °F - 69.8 °F 94% 29.89 in - Variable 2.3 mph - N/A   Clear
4:50 AM 69.8 °F - 68.0 °F 94% 29.89 in - Calm Calm - N/A   Clear
5:50 AM 69.8 °F - 68.0 °F 94% 29.89 in - Calm Calm - N/A   Clear
6:20 AM 68.0 °F - 66.2 °F 94% 29.89 in - Variable 2.3 mph - N/A   Clear
6:50 AM 68.0 °F - 66.2 °F 94% 29.89 in - Calm Calm - N/A   Clear
7:20 AM 69.8 °F - 68.0 °F 94% 29.89 in - Calm Calm - N/A   Clear
7:50 AM 73.4 °F - 69.8 °F 88% 29.89 in - Calm Calm - N/A   Clear
8:20 AM 75.2 °F - 69.8 °F 83% 29.89 in - Calm Calm - N/A   Clear
8:50 AM 78.8 °F - 73.4 °F 83% 29.89 in - Calm Calm - N/A   Clear
9:20 AM 80.6 °F 84.6 °F 71.6 °F 74% 29.89 in - Calm Calm - N/A   Clear
9:50 AM 80.6 °F 84.6 °F 71.6 °F 74% 29.89 in - Calm Calm - N/A   Clear
10:20 AM 82.4 °F 85.4 °F 68.0 °F 62% 29.92 in - Calm Calm - N/A   Clear
10:50 AM 84.2 °F 88.4 °F 69.8 °F 62% 29.89 in - Calm Calm - N/A   Clear
11:20 AM 86.0 °F 90.4 °F 69.8 °F 58% 29.89 in - Calm Calm - N/A   Clear
11:50 AM 86.0 °F 90.4 °F 69.8 °F 58% 29.89 in - Variable 3.5 mph - N/A   Clear
12:20 PM 86.0 °F 90.4 °F 69.8 °F 58% 29.89 in 6.2 mi Variable 3.5 mph - N/A   Partly Cloudy
12:50 PM 87.8 °F 91.4 °F 68.0 °F 52% 29.89 in 6.2 mi West 6.9 mph - N/A   Partly Cloudy
1:20 PM 87.8 °F 91.4 °F 68.0 °F 52% 29.89 in 6.2 mi WSW 8.1 mph - N/A   Partly Cloudy
1:50 PM 87.8 °F 91.4 °F 68.0 °F 52% 29.89 in 6.2 mi WSW 8.1 mph - N/A   Partly Cloudy
2:20 PM 87.8 °F 92.6 °F 69.8 °F 55% 29.89 in 6.2 mi WSW 8.1 mph - N/A   Partly Cloudy
2:50 PM 87.8 °F 92.6 °F 69.8 °F 55% 29.89 in 6.2 mi WSW 11.5 mph - N/A   Partly Cloudy
3:20 PM 87.8 °F 92.6 °F 69.8 °F 55% 29.89 in 6.2 mi SW 11.5 mph - N/A   Partly Cloudy
3:50 PM 89.6 °F 94.7 °F 69.8 °F 52% 29.89 in 6.2 mi SW 8.1 mph - N/A   Partly Cloudy
4:20 PM 89.6 °F 94.7 °F 69.8 °F 52% 29.86 in 6.2 mi SW 11.5 mph - N/A   Partly Cloudy
4:50 PM 87.8 °F 95.6 °F 73.4 °F 62% 29.86 in 6.2 mi SW 9.2 mph - N/A   Partly Cloudy
5:20 PM 87.8 °F 93.8 °F 71.6 °F 58% 29.86 in 6.2 mi SW 6.9 mph - N/A   Partly Cloudy
5:50 PM 89.6 °F 96.2 °F 71.6 °F 55% 29.86 in 6.2 mi WSW 9.2 mph - N/A   Partly Cloudy
6:20 PM 89.6 °F 96.2 °F 71.6 °F 55% 29.86 in 6.2 mi SW 8.1 mph - N/A   Partly Cloudy
6:50 PM 87.8 °F 93.8 °F 71.6 °F 58% 29.86 in 6.2 mi WSW 6.9 mph - N/A   Partly Cloudy
7:20 PM 87.8 °F 93.8 °F 71.6 °F 58% 29.86 in 6.2 mi WSW 6.9 mph - N/A   Partly Cloudy
7:50 PM 86.0 °F 90.4 °F 69.8 °F 58% 29.86 in 6.2 mi SSW 4.6 mph - N/A   Partly Cloudy
8:20 PM 84.2 °F 89.6 °F 71.6 °F 66% 29.86 in - Calm Calm - N/A   Clear
8:50 PM 80.6 °F 83.2 °F 68.0 °F 65% 29.86 in - Calm Calm - N/A   Clear
9:50 PM 80.6 °F 84.6 °F 71.6 °F 74% 29.89 in - Calm Calm - N/A   Clear
10:50 PM 78.8 °F - 69.8 °F 74% 29.89 in - Calm Calm - N/A   Clear
11:50 PM 78.8 °F - 69.8 °F 74% 29.89 in - Calm Calm - N/A   Clear